Regional Weather Roundup
Issued by NWS Lake Charles, LA

Home | Current Version | Previous Version | Text Only | Print | Product List | Glossary On
Versions: 1 2 3 4 5 6 7 8 9 10 11 12 13 14 15 16 17 18 19 20 21 22 23 24 25 26 27 28 29 30 31 32 33 34 35 36 37 38 39 40 41 42 43 44 45 46 47 48 49 50
000
ASUS44 KLCH 260610
RWRLCH
REGIONAL WEATHER ROUNDUP
NATIONAL WEATHER SERVICE LAKE CHARLES LA
100 AM CDT FRI MAY 26 2017

Note: "fair" indicates few or no clouds below 12,000 feet with no
significant weather and/or obstructions to visibility.


ACROSS SOUTHEAST TEXAS

CITY           SKY/WX    TMP DP  RH WIND       PRES   REMARKS
BEAUMONT       CLEAR     73  66  78 S13       29.84R
BEAUMONT CITY  FAIR      73  65  77 MISG      29.84S
ORANGE         CLEAR     75  67  76 S10G21    29.86R
JASPER           N/A     70  65  84 S3        29.85S
$$

ACROSS CENTRAL LOUISIANA

CITY           SKY/WX    TMP DP  RH WIND       PRES   REMARKS
LEESVILLE      CLEAR     69  64  82 S10       29.84S
FULLERTON      FAIR      69  63  81 CALM      29.82S
ALEXANDRIA INT CLEAR     66  63  90 SE7       29.84R
ESLER FIELD    CLEAR     68  64  87 S5        29.86R
DERIDDER       FAIR      69  66  89 SE5       29.86S
OAKDALE        CLEAR     68  64  88 S3        29.85S
OPELOUSAS      FAIR      67  63  85 S7        29.87S
$$

ACROSS SOUTHWEST AND SOUTH CENTRAL LOUISIANA

CITY           SKY/WX    TMP DP  RH WIND       PRES   REMARKS
SULPHUR        CLEAR     74  66  75 S13       29.85F
LAKE CHARLES   CLEAR     73  65  75 S9        29.85S
CHENNAULT INT  CLEAR     68  65  90 S6        29.85F
CAMERON PHI    CLEAR     77  66  69 S21G29    29.84F
DEQUINCY       FAIR      70  64  80 S8        29.84S
JENNINGS       FAIR      70  64  82 S7        29.87S
LAFAYETTE      CLEAR     70  65  84 S8        29.88F
NEW IBERIA     CLEAR     67  63  87 SE8       29.89F
ABBEVILLE      FAIR      70  68  94 SE12      29.88F
PATTERSON      CLEAR     68  65  90 SE5       29.92F
SALT POINT       N/A     74  65  73 VRB3      29.90S
$$

SELECTED SITES ACROSS THE REGION

CITY           SKY/WX    TMP DP  RH WIND       PRES   REMARKS
HOUSTON BUSH   PTCLDY    75  67  76 S13       29.80F
HOUSTON HOBBY  PTCLDY    74  68  81 S10       29.81F
GALVESTON      CLEAR     78  70  76 S23       29.85R
COLLEGE STAT   PTCLDY    72  66  81 S12       29.78R
CONROE         CLEAR     72  66  81 S8        29.80F
HUNTSVILLE     CLEAR     73  63  70 S8        29.78S
LUFKIN         CLEAR     69  63  81 S8        29.79F
SHREVEPORT     PTCLDY    70  63  78 S10       29.77S
MONROE         CLEAR     71  63  75 S7        29.84R
NATCHEZ MS     CLOUDY    69  63  81 S9        29.88R
BATON ROUGE    CLEAR     69  62  78 S7        29.90F
N.O. INTL ARPT CLEAR     69  61  75 S5        29.93S
SLIDELL        CLEAR     72  61  68 S6        29.92S
$$

MARINE REPORTS

STATION/POSITION TIME  SKY/WX   TEMP    WIND        PRES    VSBY
                                AIR SEA DIR/SP/G
                 (UTC)          (F)     (DEG/KT/KT) (MB)    (MI)
BUOY 30 S HIGH I 0450            78 79  180/ 21/ 23 1010.1
WVE H/P(F/S)=  5/ 5

SEA RIM ST PARK  0500            76     170/ 21/ 26 1010.9F
PORT ARTHUR      0548            76 79  180/ 11/ 15 1010.7R
SABINE PASS N    0548            76 80  170/ 19/ 25 1011.7F
TEXAS POINT      NOT AVBL
CALCASIEU PASS   0548            77 78  190/ 23/ 27   N/A
LK CHARLES BEACH 0548            72 76              1011.1F
MARSH ISLAND     0500            80                   N/A
FRESH WATER LOCK 0548            76 78  150/ 16/ 20 1012.0F
AMERADA PASS     0548            73 73  140/  5/  8 1012.8F
$$



USA.gov is the U.S. government's official web portal to all federal, state and local government web resources and services.